Location: Unspecified
(0.0000°N, 0.0000°E)
Time: 20:53:12
(UTC+00:00)

KINEIS-1E - Visible Passes

Search period start: 29 April 2025 00:00
Search period end: 09 May 2025 00:00
Orbit: 629 x 632 km, 98.0° (Epoch: 29 April)

Date Brightness Start Highest point End Pass type
(mag) Time Alt. Az. Time Alt. Az. Time Alt. Az.
29 Apr ? 18:15:48 10° SE 18:19:43 32° ENE 18:23:37 10° NNE visible
29 Apr ? 19:55:36 10° WSW 19:55:44 10° WSW 19:55:53 10° W visible
30 Apr ? 18:35:57 10° SSE 18:40:17 65° ENE 18:44:36 10° N visible
01 May ? 18:56:31 10° S 19:00:50 62° WSW 19:05:09 10° NNW visible
02 May ? 19:17:32 10° SSW 19:21:24 31° WSW 19:25:15 10° NW visible
03 May ? 19:39:13 10° SW 19:41:56 16° WSW 19:44:39 10° WNW visible
04 May ? 18:22:21 10° SSE 18:26:27 40° ENE 18:30:32 10° N visible
05 May ? 18:42:37 10° SSE 18:47:00 82° ENE 18:51:22 10° N visible
06 May ? 19:03:19 10° S 19:07:33 49° WSW 19:11:46 10° NNW visible
07 May ? 19:24:29 10° SSW 19:28:05 25° WSW 19:31:40 10° NW visible
08 May ? 19:46:33 10° SW 19:48:36 13° WSW 19:50:39 10° WNW visible
